Location: Tamazert
(32.6352°N, 5.2072°W)
Time: 16:58:22
(UTC+00:00)

Cosmos 1943 Rocket - Pass Details

Date: 22 May 2022
Orbit: 810 x 845 km, 71.0° (Epoch: 28 June)

Event Time Altitude Azimuth Distance (km) Brightness Sun altitude
Rises 02:45:10 0° 349° (N) 3,407 5.9 -26.3°
Reaches altitude 10° 02:47:50 10° 358° (N) 2,470 5.2 -26.0°
Maximum altitude 02:53:01 36° 64° (ENE) 1,313 3.6 -25.3°
Drops below altitude 10° 02:58:10 10° 130° (SE) 2,454 4.6 -24.6°
Sets 03:00:47 0° 139° (SE) 3,382 5.3 -24.2°
